Flag for Germany Weather past 2 weeks in Kaiserslautern, Rhineland-Palatinate, Germany

Now
45 °F

Mostly cloudy.


Feels Like: 39 °F
Forecast: 42 / 52 °F
Wind: 10 mph from Southwest

Location: Ramstein

Current Time: Oct 22, 2014 at 9:23:05 AM

Latest Report: Oct 22, 2014 at 8:58 AM


Visibility: N/A

Pressure: 30.08 "Hg

Humidity: 71%

Dew point: 36 °F

Location of KaiserslauternLocation

Historic Weather in Kaiserslautern — Graph

°F

Kaiserslautern temperature yesterday

Maximum temperature yesterday: 57 °F (at 11:58 AM)
Minimum temperature yesterday: 45 °F (at 10:02 PM)
Average temperature yesterday: 52 °F

Past Weeks' High & Low Weather Summary

 TemperatureHumidityPressure
High73 °F (Oct 19, 3:58 PM)100% (Oct 10, 12:58 AM)30.20 "Hg (Oct 10, 12:58 AM)
Low41 °F (Oct 18, 3:58 AM)46% (Oct 18, 2:58 PM)29.64 "Hg (Oct 21, 4:58 PM)
Average56 °F83%29.90 "Hg
* Reported Oct 7 7:58 AM — Oct 22 7:58 AM, Kaiserslautern, Weather by CustomWeather, © 2014

Note: Actual official high and low records may vary slightly from our data, if they occured in-between our weather recording intervals... More about our weather records

Advertising

Kaiserslautern weather history for previous 24 hours

 ConditionsComfort  
Time TempWeatherWind HumidityBarometerVisibility
7:58 AM
Oct 22
44 °FMostly cloudy.12 mph71%30.04 "HgN/A
6:58 AM45 °FMostly cloudy.13 mph66%30.02 "HgN/A
5:58 AM45 °FMostly cloudy.14 mph66%30.00 "HgN/A
4:58 AM45 °FMostly cloudy.13 mph71%29.99 "HgN/A
3:58 AM45 °FPassing clouds.13 mph66%30.01 "HgN/A
2:58 AM46 °FOvercast.15 mph66%29.98 "HgN/A
1:58 AM46 °FPartly cloudy.12 mph71%29.97 "HgN/A
12:58 AM46 °FPassing clouds.14 mph70%29.95 "HgN/A
11:58 PM
Oct 21
46 °FPassing clouds.13 mph72%29.93 "HgN/A
10:58 PM45 °FPassing clouds.9 mph76%29.92 "HgN/A
10:02 PM45 °FLight rain. Passing clouds.13 mph71%29.86 "HgN/A
9:58 PM45 °FClear.13 mph68%29.87 "HgN/A
8:58 PM47 °FPartly cloudy.16 mph71%29.83 "HgN/A
7:58 PM48 °FPassing clouds.20 mph67%29.78 "HgN/A
7:02 PM50 °FLight rain. Partly sunny.14 mph76%29.70 "HgN/A
6:58 PM50 °FScattered clouds.13 mph82%29.71 "HgN/A
6:04 PM54 °FThunderstorms. Cloudy.23 mph77%29.66 "Hg2 mi
6:02 PM54 °FThunderstorms. Cloudy.25 mph77%29.66 "Hg1 mi
4:58 PM57 °FPartly sunny.13 mph77%29.64 "HgN/A
4:04 PM55 °FLight rain. Mostly cloudy.15 mph82%29.68 "HgN/A
3:58 PM56 °FDrizzle. Partly sunny.14 mph78%29.69 "HgN/A
2:58 PM57 °FLight rain. Partly sunny.14 mph67%29.75 "HgN/A
1:58 PM57 °FMostly cloudy.13 mph59%29.79 "HgN/A
12:58 PM57 °FBroken clouds.16 mph63%29.82 "HgN/A
11:58 AM57 °FMore clouds than sun.13 mph63%29.86 "HgN/A
11:03 AM55 °FCloudy.14 mph67%29.88 "HgN/A
10:58 AM55 °FMostly cloudy.14 mph67%29.90 "HgN/A
9:58 AM54 °FBroken clouds.12 mph74%29.90 "HgN/A
Weather by CustomWeather, © 2014

See weather overviewHow to use our weather pages